[[{"header":{"parameterUnit":"m.s-1","parameterCategory":1,"la1":30.2991,"la2":30.254,"lo1":-89.0895,"lo2":-89.0444,"dy":0.0017,"dx":0.0017,"nx":28,"ny":28,"refTime":"2024-06-21T03:00:00:Z","depth":0,"parameterNumber":2,"parameterNumberName":"U-component_of_WINDS"},"data":[0,0,0,0,0,0,0,0,0,0,0,0,0,0,0,0,0,0,0,0,0,0,0,0,0,0,0,0,0,0,0,0,0,0,0,0,0,0,0,0,0,0,0,0,0,0,0,0,0,0,0,0,0,0,0,0,0,0,0.034,0.034,0,0.0375,0.0376,0.0376,0.0422,0.0423,0.0424,0.0425,0.0459,0.0459,0.0459,0,0,0,0,0,0,0,0,0,0,0,0,0,0.0311,0.0311,0.034,0.034,0.0341,0.0375,0.0376,0.0376,0.0422,0.0423,0.0424,0.0425,0.0459,0.0459,0.0459,0,0,0,0,0,0,0,0,0,0,0,0,0,0.0332,0.0311,0.034,0.0368,0.0371,0.0375,0.0376,0.0376,0.0422,0.0423,0.0424,0.0425,0.0459,0.0459,0.0459,0.0439,0,0,0.046,0.0461,0,0,0,0,0,0,0,0,0.0331,0.0333,0.0363,0.0366,0.0369,0.0396,0.0378,0.0397,0.0422,0.0402,0.0425,0.0426,0.0437,0.0439,0.0443,0.044,0.0442,0.046,0.0461,0.0461,0.0461,0,0,0,0,0,0,0,0.0329,0.0332,0.0354,0.0364,0.0367,0.0378,0.0383,0.0382,0.0413,0.0404,0.0408,0.0411,0.0439,0.0443,0.0444,0.0442,0.046,0.0461,0.0461,0.0461,0.0425,0.0423,0,0,0,0,0,0,0.0324,0.033,0.0353,0.0355,0.0353,0.0378,0.0383,0.0386,0.0413,0.0418,0.041,0.0413,0.0442,0.0444,0.0446,0.0423,0.0461,0.0461,0.0461,0.0426,0.0424,0.0423,0,0,0,0,0,0,0.0323,0.0326,0.0351,0.0344,0.0348,0.0377,0.038,0.0386,0.039,0.0418,0.0423,0.0409,0.0443,0.0445,0.044,0.0425,0.0461,0.0461,0.0427,0.0425,0.0424,0.0378,0,0,0,0,0,0,0.0322,0.0325,0.0317,0.0343,0.0348,0.0345,0.0379,0.0386,0.0391,0.0395,0.0418,0.0422,0.0444,0.044,0.0441,0.0426,0.0462,0.0429,0.0426,0.0424,0.0381,0.0375,0.0369,0,0,0,0,0,0.0321,0.0303,0.0317,0.0319,0.0339,0.0344,0.0347,0.0372,0.0389,0.0382,0.04,0.0422,0.0427,0.0439,0.044,0.0425,0.043,0.0427,0.0424,0.0383,0.0376,0.0369,0,0,0,0,0,0,0.0273,0.0306,0.0323,0.0312,0.0325,0.0352,0.0343,0.0364,0.0372,0.0375,0.0406,0.0411,0.0402,0.0413,0.0426,0.0407,0.0431,0.0429,0.04,0.0393,0.0387,0.0384,0.0462,0,0,0,0,0,0.0262,0.0263,0.0292,0.028,0.0286,0.0313,0.0317,0.0335,0.035,0.0355,0.0373,0.0385,0.039,0.0392,0.0398,0.0383,0.0388,0.0374,0.0368,0.0363,0.036,0.0354,0.0347,0.0414,0.0414,0.0415,0,0,0.0237,0.0256,0.0255,0.0271,0.0283,0.0284,0.0318,0.0317,0.0318,0.0355,0.0351,0.0365,0.0381,0.0371,0.0368,0.038,0.0344,0.036,0.0356,0.0356,0.035,0.0344,0.0338,0.0413,0.0413,0.0413,0,0,0.0193,0.0208,0.0199,0.0211,0.023,0.0249,0.0247,0.0271,0.0281,0.0279,0.0307,0.0308,0.0315,0.0326,0.0332,0.0294,0.0314,0.0295,0.0265,0.0258,0.0252,0.0248,0.0234,0.0228,0.0292,0.0292,0.0292,0,0.0161,0.0163,0.0192,0.019,0.0196,0.0231,0.0223,0.0233,0.0252,0.0255,0.027,0.028,0.0294,0.0287,0.0277,0.0282,0.028,0.0292,0.0251,0.0247,0.0243,0.023,0.0224,0.0289,0.029,0.029,0.029,0,0.0122,0.0124,0.0115,0.0133,0.0139,0.0133,0.0161,0.0163,0.0182,0.0199,0.0195,0.0213,0.0223,0.0223,0.0241,0.0219,0.0226,0.0245,0.027,0.0233,0.0222,0.0217,0.0286,0.0287,0.0287,0.0288,0,0,0.0047,0.0083,0.0079,0.0088,0.0112,0.0114,0.011,0.0121,0.0122,0.0134,0.0132,0.0138,0.0156,0.0163,0.0182,0.0176,0.0145,0.0196,0.0197,0.0186,0.0121,0.0106,0.01,0.0159,0.0158,0.0157,0.012,0,0.0007,0.0004,0.003,0.0019,0.0021,0.0055,0.0052,0.0066,0.0082,0.0086,0.0103,0.0107,0.0131,0.0135,0.0131,0.0149,0.0132,0.0152,0.0156,0.0156,0.015,0.0094,0.0078,0.0041,0.0115,0.0115,0.0114,0,-0.004,-0.0029,-0.004,-0.0015,-0.0013,-0.0017,-0.0004,-0.0001,0.0016,0.0028,0.0037,0.0059,0.0057,0.0082,0.008,0.0093,0.0096,0.0106,0.0105,0.0105,0.0132,0.0092,0.003,0.0024,0.0107,0.0108,0.0108,0,-0.0094,-0.0082,-0.0087,-0.008,-0.0051,-0.0054,-0.0042,-0.0024,-0.0019,-0.0008,-0.0005,0.0005,0.001,0.0018,0.0042,0.0058,0.0037,0.0064,0.0047,0.0046,0.004,0.004,-0.0023,0.0043,0.0043,0.0043,0.0043,0,-0.0142,-0.015,-0.0111,-0.0114,-0.0122,-0.0091,-0.01,-0.0084,-0.0068,-0.0068,-0.0038,-0.0038,-0.0005,-0.0002,0.0018,0.0013,0.0015,0.0024,0.0029,0.0021,0.002,0.0023,0.0026,0.0042,0.0042,0.0043,0.0043,0,-0.0204,-0.0178,-0.0181,-0.0153,-0.0146,-0.0153,-0.0129,-0.013,-0.0112,-0.0112,-0.011,-0.0081,-0.0075,-0.0049,-0.0038,-0.0025,-0.0037,-0.0026,-0.0042,-0.0039,-0.0058,-0.0057,-0.0122,-0.0129,-0.0057,-0.0058,-0.0059,0,-0.0237,-0.0243,-0.0214,-0.0212,-0.0201,-0.0197,-0.0191,-0.0161,-0.0156,-0.0137,-0.0141,-0.0133,-0.0125,-0.0118,-0.0096,-0.0087,-0.0076,-0.0099,-0.0075,-0.0083,-0.0077,-0.0077,-0.0078,-0.0105,-0.0106,-0.0107,-0.0107,0,-0.0299,-0.0285,-0.0278,-0.0266,-0.026,-0.0249,-0.0237,-0.0237,-0.0203,-0.0199,-0.0193,-0.0186,-0.0174,-0.0167,-0.0154,-0.0141,-0.0119,-0.0115,-0.0119,-0.0128,-0.0137,-0.0133,-0.0058,-0.0114,-0.0113,-0.0113,-0.0113,-0.0112,-0.0348,-0.0351,-0.0331,-0.0324,-0.0311,-0.03,-0.03,-0.0281,-0.0274,-0.0262,-0.0244,-0.024,-0.0222,-0.0202,-0.0192,-0.0188,-0.0176,-0.0181,-0.0182,-0.0184,-0.0188,-0.0137,-0.0186,-0.0185,-0.0185,-0.0185,-0.0185,0,-0.0408,-0.0393,-0.0387,-0.037,-0.0364,-0.0342,-0.0327,-0.0324,-0.0321,-0.0306,-0.0298,-0.029,-0.0282,-0.0259,-0.0249,-0.0251,-0.024,-0.0249,-0.0249,-0.0247,-0.02,-0.0198,-0.0258,-0.0258,-0.0258,-0.0258,-0.0258,-0.0258,-0.0439,-0.0443,-0.0427,-0.0423,-0.0408,-0.0404,-0.0397,-0.0387,-0.0374,-0.0367,-0.036,-0.0344,-0.0326,-0.0314,-0.0306,-0.0299,-0.0297,-0.031,-0.03,-0.0257,-0.025,-0.0244,-0.0242,-0.031,-0.031,-0.0347,-0.0348,-0.0348]},{"header":{"parameterUnit":"m.s-1","parameterCategory":1,"la1":30.2991,"la2":30.254,"lo1":-89.0895,"lo2":-89.0444,"dy":0.0017,"dx":0.0017,"nx":28,"ny":28,"refTime":"2024-06-21T03:00:00:Z","depth":0,"parameterNumber":3,"parameterNumberName":"V-component_of_WINDS"},"data":[0,0,0,0,0,0,0,0,0,0,0,0,0,0,0,0,0,0,0,0,0,0,0,0,0,0,0,0,0,0,0,0,0,0,0,0,0,0,0,0,0,0,0,0,0,0,0,0,0,0,0,0,0,0,0,0,0,0,-1.0582,-1.0583,0,-1.0645,-1.0646,-1.0647,-1.0697,-1.0697,-1.0698,-1.0698,-1.0761,-1.0763,-1.0764,0,0,0,0,0,0,0,0,0,0,0,0,0,-1.0505,-1.0506,-1.0582,-1.0583,-1.0584,-1.0645,-1.0646,-1.0647,-1.0697,-1.0697,-1.0698,-1.0698,-1.0761,-1.0762,-1.0764,0,0,0,0,0,0,0,0,0,0,0,0,0,-1.055,-1.0506,-1.0582,-1.0616,-1.062,-1.0645,-1.0646,-1.0647,-1.0696,-1.0697,-1.0698,-1.0699,-1.0761,-1.0762,-1.0764,-1.076,0,0,-1.077,-1.077,0,0,0,0,0,0,0,0,-1.0547,-1.0553,-1.061,-1.0614,-1.0618,-1.0664,-1.0642,-1.0685,-1.0696,-1.0667,-1.0698,-1.0699,-1.0728,-1.0733,-1.0743,-1.0763,-1.0766,-1.077,-1.0771,-1.0772,-1.0772,0,0,0,0,0,0,0,-1.0544,-1.055,-1.0607,-1.0611,-1.0616,-1.0628,-1.0635,-1.065,-1.0693,-1.067,-1.0674,-1.068,-1.073,-1.0741,-1.0745,-1.0767,-1.077,-1.0771,-1.0773,-1.0773,-1.0787,-1.0786,0,0,0,0,0,0,-1.0536,-1.0547,-1.0605,-1.0609,-1.0584,-1.0629,-1.0637,-1.0648,-1.0693,-1.07,-1.068,-1.0683,-1.0738,-1.0743,-1.0747,-1.0745,-1.0772,-1.0773,-1.0774,-1.0788,-1.0787,-1.0786,0,0,0,0,0,0,-1.0534,-1.054,-1.0603,-1.0579,-1.0588,-1.0629,-1.0642,-1.0649,-1.066,-1.07,-1.0708,-1.0683,-1.0738,-1.0745,-1.0757,-1.0748,-1.0774,-1.0776,-1.0789,-1.0788,-1.0787,-1.0741,0,0,0,0,0,0,-1.0531,-1.0539,-1.0538,-1.0579,-1.0589,-1.0611,-1.0641,-1.065,-1.0663,-1.0667,-1.0705,-1.0712,-1.0739,-1.0754,-1.0758,-1.0751,-1.0777,-1.079,-1.0788,-1.0787,-1.0744,-1.0739,-1.0735,0,0,0,0,0,-1.0528,-1.0523,-1.0538,-1.0545,-1.0589,-1.061,-1.0616,-1.0648,-1.0662,-1.0661,-1.0687,-1.0711,-1.0749,-1.0754,-1.076,-1.0753,-1.079,-1.0789,-1.0787,-1.0746,-1.074,-1.0735,0,0,0,0,0,0,-1.048,-1.0529,-1.0546,-1.0554,-1.0578,-1.0619,-1.0619,-1.0641,-1.0661,-1.0664,-1.0703,-1.0711,-1.0718,-1.0738,-1.0743,-1.0752,-1.0772,-1.0772,-1.0739,-1.0734,-1.0729,-1.0724,-1.0779,0,0,0,0,0,-1.047,-1.0484,-1.0526,-1.0529,-1.054,-1.0577,-1.0588,-1.061,-1.0636,-1.0647,-1.0674,-1.0698,-1.0715,-1.0726,-1.0744,-1.0747,-1.0756,-1.0745,-1.0741,-1.0737,-1.0735,-1.0738,-1.0734,-1.0781,-1.0781,-1.0781,0,0,-1.045,-1.0479,-1.0485,-1.052,-1.0541,-1.0554,-1.0585,-1.0598,-1.0608,-1.0649,-1.0661,-1.0682,-1.0712,-1.0719,-1.0724,-1.0735,-1.0725,-1.0735,-1.0731,-1.0732,-1.0736,-1.0732,-1.0728,-1.078,-1.078,-1.078,0,0,-1.042,-1.0443,-1.0448,-1.0469,-1.05,-1.0525,-1.0526,-1.0565,-1.058,-1.0594,-1.0625,-1.0637,-1.0666,-1.0686,-1.07,-1.0678,-1.07,-1.0682,-1.0658,-1.066,-1.0657,-1.0654,-1.0645,-1.0642,-1.0681,-1.0681,-1.0681,0,-1.0391,-1.0412,-1.0447,-1.0458,-1.0472,-1.051,-1.0515,-1.0533,-1.0569,-1.0578,-1.059,-1.0628,-1.0651,-1.0663,-1.0658,-1.0668,-1.067,-1.0678,-1.0654,-1.0652,-1.0649,-1.0642,-1.0638,-1.0679,-1.0679,-1.0679,-1.068,0,-1.0374,-1.0389,-1.0388,-1.0422,-1.0437,-1.0444,-1.048,-1.0491,-1.0512,-1.0536,-1.0549,-1.0578,-1.0602,-1.0607,-1.0628,-1.0623,-1.0629,-1.0647,-1.0668,-1.0642,-1.0635,-1.0633,-1.0675,-1.0676,-1.0677,-1.0678,0,0,-1.0314,-1.0368,-1.0368,-1.0383,-1.0422,-1.0433,-1.0443,-1.0467,-1.0475,-1.0499,-1.0507,-1.0531,-1.0549,-1.0564,-1.0588,-1.059,-1.057,-1.0608,-1.061,-1.0599,-1.0565,-1.055,-1.0546,-1.0585,-1.0585,-1.0585,-1.0562,0,-1.029,-1.0309,-1.0341,-1.0349,-1.0363,-1.04,-1.0408,-1.0432,-1.0454,-1.0469,-1.0494,-1.051,-1.0532,-1.0542,-1.0545,-1.0571,-1.0563,-1.0574,-1.0593,-1.0593,-1.0583,-1.0543,-1.0527,-1.0504,-1.056,-1.0559,-1.0559,0,-1.0263,-1.0285,-1.0295,-1.0332,-1.0339,-1.0345,-1.037,-1.0384,-1.0412,-1.0428,-1.0446,-1.0472,-1.0484,-1.0504,-1.052,-1.0526,-1.0536,-1.055,-1.055,-1.0552,-1.0574,-1.0543,-1.0498,-1.0494,-1.0556,-1.0556,-1.0556,0,-1.0217,-1.0249,-1.0259,-1.0272,-1.0316,-1.032,-1.0338,-1.0367,-1.038,-1.0402,-1.041,-1.0433,-1.0445,-1.0462,-1.0494,-1.0506,-1.0506,-1.0529,-1.052,-1.0519,-1.0517,-1.0516,-1.0472,-1.0525,-1.0525,-1.0525,-1.0525,0,-1.0186,-1.019,-1.0239,-1.0245,-1.0251,-1.0288,-1.0293,-1.0315,-1.034,-1.0351,-1.0385,-1.0394,-1.0436,-1.045,-1.0475,-1.0484,-1.0489,-1.0502,-1.0509,-1.0499,-1.0497,-1.0505,-1.0507,-1.0524,-1.0524,-1.0525,-1.0525,0,-1.0135,-1.0168,-1.0182,-1.0222,-1.0233,-1.0235,-1.027,-1.0277,-1.0302,-1.0315,-1.032,-1.0359,-1.0377,-1.0411,-1.0439,-1.0455,-1.0459,-1.0471,-1.0449,-1.0453,-1.0441,-1.0441,-1.0399,-1.0396,-1.0452,-1.0451,-1.0451,0,-1.0112,-1.0116,-1.0158,-1.0167,-1.0185,-1.02,-1.0213,-1.025,-1.0262,-1.0295,-1.0298,-1.0319,-1.0338,-1.0365,-1.0396,-1.0417,-1.0429,-1.0413,-1.0432,-1.0422,-1.0428,-1.0427,-1.0427,-1.0408,-1.0407,-1.0406,-1.0406,0,-1.0067,-1.0084,-1.0102,-1.0125,-1.014,-1.0161,-1.0183,-1.0189,-1.0231,-1.0243,-1.0262,-1.0277,-1.0305,-1.0325,-1.0351,-1.037,-1.0395,-1.04,-1.0399,-1.0388,-1.0375,-1.0381,-1.0436,-1.04,-1.0401,-1.0401,-1.0401,-1.0402,-1.003,-1.0035,-1.0065,-1.0084,-1.0104,-1.0124,-1.0133,-1.0159,-1.0176,-1.0202,-1.0223,-1.024,-1.0269,-1.0306,-1.0324,-1.0338,-1.0349,-1.0348,-1.0347,-1.0346,-1.0341,-1.0373,-1.0343,-1.0343,-1.0343,-1.0343,-1.0343,0,-0.9986,-1.0007,-1.0024,-1.0054,-1.0069,-1.0092,-1.0117,-1.0128,-1.0143,-1.0167,-1.0185,-1.0207,-1.0227,-1.026,-1.0282,-1.0287,-1.0299,-1.0292,-1.0291,-1.0295,-1.033,-1.0329,-1.0282,-1.0282,-1.0282,-1.0282,-1.0282,-1.0282,-0.9965,-0.9975,-0.9995,-1.0016,-1.0037,-1.0054,-1.0067,-1.0086,-1.0105,-1.0129,-1.0145,-1.0167,-1.0194,-1.0219,-1.0238,-1.0248,-1.0254,-1.0243,-1.0255,-1.0287,-1.0293,-1.0298,-1.0297,-1.0244,-1.0244,-1.0219,-1.0218,-1.0218]}]]